Overview Statistics Trail Chart Weather Telemetry Raw packets
 

This is the latest recevied weather packets stored in our database for station/object KN6WGU. If no packets are shown the sender has not sent any weather packets the latest 10 day(s).

<< 57 58 59 60 61 62 63 >>
Time Temp. Humidity Pressure Rain* Wind** Luminosity Snow
1788221479 25.56° C 78% 1008.8 hPa 0 mm - 0 W/m² -
1788221174 25.56° C 78% 1009.1 hPa 0 mm - 0 W/m² -
1788220864 25.56° C 77% 1009.2 hPa 0 mm - 0 W/m² -
1788220557 25.56° C 78% 1009.2 hPa 0 mm - 1 W/m² -
1788220253 26.11° C 77% 1009.6 hPa 1.78 mm - 1 W/m² -
1788219952 26.11° C 77% 1009.9 hPa 1.78 mm - 1 W/m² -
1788219663 26.11° C 78% 1009.6 hPa 0 mm - 1 W/m² -
1788219343 27.22° C 80% 1009.8 hPa 0 mm - 2 W/m² -
1788219039 27.22° C 78% 1010.2 hPa 0 mm - 2 W/m² -
1788218733 27.78° C 76% 1009.8 hPa 0 mm - 2 W/m² -
1788218429 27.78° C 76% 1009.9 hPa 0 mm - 2 W/m² -
1788218126 27.78° C 76% 1009.7 hPa 0 mm - 5 W/m² -
1788217821 27.78° C 76% 1009.6 hPa 0 mm - 6 W/m² -
1788217517 27.78° C 76% 1009.8 hPa 0 mm - 7 W/m² -
1788217217 28.33° C 76% 1010 hPa 0 mm - 12 W/m² -
1788216912 28.33° C 76% 1010 hPa 0 mm - 16 W/m² -
1788216612 28.33° C 75% 1010.1 hPa 0 mm - 19 W/m² -
1788216307 28.33° C 75% 1010.1 hPa 0 mm - 25 W/m² -
1788216021 28.33° C 74% 1010.1 hPa 0 mm - 32 W/m² -
1788215698 28.89° C 72% 1010.1 hPa 0 mm - 37 W/m² -
1788215394 28.89° C 72% 1010 hPa 0 mm - 39 W/m² -
1788215090 28.89° C 71% 1010 hPa 0 mm - 44 W/m² -
1788214789 28.89° C 71% 1010.1 hPa 0 mm - 52 W/m² -
1788214485 28.89° C 70% 1010.3 hPa 0 mm - 60 W/m² -
1788214180 29.44° C 69% 1010.1 hPa 0 mm - 72 W/m² -

* Rain latest hour (hover to see other rain measurements)
** Current wind speed in m/s (hover to see current wind gust speed)